GBOYI EGCM-EGCM

Flight info

Callsign GBOYI
Flight time 0h 17m
Altitude 3000
Route UPTON DCT KIM DCT VUSFO
Aircraft PA24/L-SDGRY/S

Departure

Time 2026-04-24 16:41
Airport Leeds East Airport (EGCM)

Arrival

Time 2026-04-24 16:59
Airport Leeds East Airport (EGCM)
Time Latitude Longitude Altitude Speed Heading
2026-04-24 16:34 53.83338 -1.20432 26 ft 0 kts 137°
2026-04-24 16:38 53.83332 -1.20405 28 ft 5 kts 54°
2026-04-24 16:38 53.83383 -1.20265 28 ft 21 kts 71°
2026-04-24 16:38 53.83464 -1.20008 28 ft 28 kts 60°
2026-04-24 16:39 53.83618 -1.19825 28 ft 32 kts 14°
2026-04-24 16:39 53.83743 -1.19599 28 ft 27 kts 71°
2026-04-24 16:39 53.83818 -1.19294 28 ft 28 kts 63°
2026-04-24 16:39 53.83906 -1.18996 28 ft 28 kts 63°
2026-04-24 16:40 53.84005 -1.18717 27 ft 28 kts 54°
2026-04-24 16:40 53.84002 -1.18496 27 ft 20 kts 138°
2026-04-24 16:40 53.83910 -1.18448 30 ft 14 kts 240°
2026-04-24 16:40 53.83779 -1.18759 31 ft 59 kts 235°
2026-04-24 16:41 53.83465 -1.19508 106 ft 89 kts 231°
2026-04-24 16:41 53.83085 -1.20381 301 ft 94 kts 230°
2026-04-24 16:41 53.82677 -1.21253 525 ft 95 kts 228°
2026-04-24 16:41 53.82243 -1.22056 761 ft 93 kts 224°
2026-04-24 16:42 53.81833 -1.22889 953 ft 97 kts 251°
2026-04-24 16:42 53.82157 -1.23861 1150 ft 102 kts 334°
2026-04-24 16:42 53.82824 -1.23957 1278 ft 95 kts
2026-04-24 16:42 53.83485 -1.23885 1382 ft 96 kts
2026-04-24 16:43 53.84149 -1.23908 1498 ft 93 kts 359°
2026-04-24 16:43 53.84818 -1.23940 1564 ft 97 kts
2026-04-24 16:43 53.85479 -1.23950 1674 ft 99 kts
2026-04-24 16:43 53.86141 -1.23827 1775 ft 97 kts 30°
2026-04-24 16:44 53.86526 -1.22973 1883 ft 92 kts 63°
2026-04-24 16:44 53.86851 -1.22042 1946 ft 94 kts 58°
2026-04-24 16:44 53.87234 -1.21144 2016 ft 92 kts 62°
2026-04-24 16:44 53.87521 -1.20160 2091 ft 93 kts 70°
2026-04-24 16:45 53.87804 -1.19192 2208 ft 93 kts 60°
2026-04-24 16:45 53.88111 -1.18194 2298 ft 92 kts 63°
2026-04-24 16:45 53.88406 -1.17227 2363 ft 94 kts 64°
2026-04-24 16:45 53.88668 -1.16443 2828 ft 56 kts 48°
2026-04-24 16:46 53.89023 -1.16136 2593 ft 85 kts 13°
2026-04-24 16:46 53.89443 -1.16017 2469 ft 41 kts 286°
2026-04-24 16:46 53.88941 -1.15877 2089 ft 70 kts 154°
2026-04-24 16:46 53.88613 -1.15520 2122 ft 62 kts 137°
2026-04-24 16:47 53.88393 -1.15068 2016 ft 50 kts 93°
2026-04-24 16:47 53.88708 -1.14287 1504 ft 86 kts 40°
2026-04-24 16:47 53.89116 -1.13635 1518 ft 79 kts 65°
2026-04-24 16:47 53.89032 -1.12821 1571 ft 72 kts 130°
2026-04-24 16:48 53.88645 -1.12341 1608 ft 67 kts 158°
2026-04-24 16:48 53.88169 -1.12317 1649 ft 73 kts 187°
2026-04-24 16:48 53.87580 -1.12451 1388 ft 91 kts 184°
2026-04-24 16:48 53.86940 -1.12576 1057 ft 92 kts 184°
2026-04-24 16:49 53.86352 -1.12828 848 ft 85 kts 205°
2026-04-24 16:49 53.85965 -1.13587 748 ft 86 kts 232°
2026-04-24 16:49 53.85642 -1.14372 709 ft 72 kts 227°
2026-04-24 16:49 53.85347 -1.15048 598 ft 70 kts 229°
2026-04-24 16:50 53.85146 -1.15493 522 ft 73 kts 226°
2026-04-24 16:50 53.84765 -1.16422 330 ft 69 kts 231°
2026-04-24 16:50 53.84494 -1.17068 268 ft 67 kts 231°
2026-04-24 16:50 53.84223 -1.17709 182 ft 67 kts 231°
2026-04-24 16:51 53.83958 -1.18341 83 ft 66 kts 232°
2026-04-24 16:51 53.83696 -1.18959 32 ft 58 kts 234°
2026-04-24 16:51 53.83467 -1.19475 58 ft 58 kts 215°
2026-04-24 16:51 53.83161 -1.20018 93 ft 75 kts 211°
2026-04-24 16:52 53.83002 -1.20769 396 ft 61 kts 244°
2026-04-24 16:52 53.82731 -1.21472 518 ft 74 kts 226°
2026-04-24 16:52 53.82344 -1.22171 700 ft 81 kts 220°
2026-04-24 16:52 53.81898 -1.22727 876 ft 71 kts 198°
2026-04-24 16:53 53.82123 -1.22906 577 ft 75 kts 52°
2026-04-24 16:53 53.82319 -1.22202 363 ft 68 kts 49°
2026-04-24 16:53 53.82586 -1.21583 223 ft 61 kts 57°
2026-04-24 16:53 53.82842 -1.21003 143 ft 62 kts 58°
2026-04-24 16:54 53.83090 -1.20407 65 ft 62 kts 56°
2026-04-24 16:54 53.83323 -1.19847 31 ft 54 kts 54°
2026-04-24 16:54 53.83601 -1.19212 159 ft 73 kts 56°
2026-04-24 16:54 53.83936 -1.18537 384 ft 76 kts 52°
2026-04-24 16:55 53.84296 -1.17862 590 ft 78 kts 44°
2026-04-24 16:55 53.84781 -1.18054 762 ft 92 kts 292°
2026-04-24 16:55 53.84553 -1.18908 996 ft 87 kts 224°
2026-04-24 16:55 53.84119 -1.19696 1083 ft 103 kts 223°
2026-04-24 16:56 53.83678 -1.20795 1144 ft 111 kts 241°
2026-04-24 16:56 53.83315 -1.21933 1303 ft 108 kts 238°
2026-04-24 16:56 53.82918 -1.23017 1453 ft 107 kts 231°
2026-04-24 16:56 53.82499 -1.24087 1580 ft 109 kts 239°
2026-04-24 16:57 53.82106 -1.25098 1796 ft 82 kts 185°
2026-04-24 16:57 53.82120 -1.24369 1276 ft 82 kts 109°
2026-04-24 16:57 53.82030 -1.23443 905 ft 74 kts 72°
2026-04-24 16:57 53.82080 -1.23281 839 ft 72 kts 47°
2026-04-24 16:58 53.82105 -1.23232 792 ft 73 kts 39°
2026-04-24 16:58 53.82285 -1.22321 353 ft 81 kts 65°
2026-04-24 16:58 53.82576 -1.21605 220 ft 70 kts 47°
2026-04-24 16:58 53.82878 -1.20913 123 ft 76 kts 47°
2026-04-24 16:59 53.83175 -1.20198 35 ft 66 kts 52°
2026-04-24 16:59 53.83375 -1.19725 31 ft 33 kts 57°
2026-04-24 16:59 53.83597 -1.19660 30 ft 24 kts 335°
2026-04-24 17:00 53.83646 -1.19815 31 ft 16 kts 195°
2026-04-24 17:00 53.83484 -1.19895 32 ft 0 kts 126°